Home   Weather   Grand Junction   Past weeks

Flag for USA Past Weather in Grand Junction, Colorado, USA — Yesterday and Last 2 Weeks

Now
49 °F

Clear.


Feels Like: 45 °F
Forecast: 48 / 73 °F
Wind: 8 mph from Northeast

Location: Walker Field

Current Time: Apr 24, 2017 at 5:44:50 am

Latest Report: Apr 24, 2017 at 4:53 am


Visibility: 10 mi

Pressure: 29.62 "Hg (25.01 "Hg at 1398m altitude)

Humidity: 52%

Dew Point: 32 °F

Location of Grand JunctionLocation

Past Weather in Grand Junction — Graph

°F

Grand Junction Temperature Yesterday

Maximum temperature yesterday: 74 °F (at 12:53 pm)
Minimum temperature yesterday: 43 °F (at 4:53 am)
Average temperature yesterday: 61 °F

High & Low Weather Summary for the Past Weeks

 TemperatureHumidityPressure
High80 °F (Apr 13, 3:53 pm)96% (Apr 21, 12:53 am)30.22 "Hg (Apr 21, 12:53 am)
Low28 °F (Apr 10, 5:53 am)7% (Apr 10, 4:53 pm)29.52 "Hg (Apr 23, 9:53 pm)
Average57 °F28%29.89 "Hg
* Reported Apr 9 3:53 am — Apr 24 3:53 am, Grand Junction, Weather by CustomWeather, © 2017

Note: Actual official high and low records may vary slightly from our data, if they occured in-between our weather recording intervals... More about our weather records

Advertising

Grand Junction Weather History for the Previous 24 Hours

Scroll right to see more
 ConditionsComfort  
Time TempWeatherWind HumidityBarometerVisibility
3:53 am
Mon, Apr 24
50 °FClear.3 mph52%29.62 "Hg10 mi
2:53 am50 °FClear.8 mph52%29.61 "Hg10 mi
1:53 am55 °FPassing clouds.No wind44%29.58 "Hg10 mi
12:53 am60 °FPassing clouds.13 mph36%29.60 "Hg10 mi
11:53 pm
Sun, Apr 23
60 °FPassing clouds.8 mph35%29.57 "Hg10 mi
10:53 pm62 °FPassing clouds.17 mph29%29.54 "Hg10 mi
10:40 pm63 °FPassing clouds.18 mph26%29.69 "Hg10 mi
9:53 pm62 °FClear.5 mph21%29.52 "Hg10 mi
8:53 pm64 °FClear.6 mph21%29.52 "Hg10 mi
7:53 pm68 °FSunny.3 mph19%29.54 "Hg10 mi
6:53 pm73 °FSunny.7 mph17%29.57 "Hg10 mi
5:53 pm73 °FSunny.14 mph17%29.60 "Hg10 mi
4:53 pm74 °FSunny.15 mph16%29.60 "Hg10 mi
3:53 pm74 °FSunny.13 mph17%29.63 "Hg10 mi
2:53 pm74 °FSunny.14 mph17%29.65 "Hg10 mi
1:53 pm74 °FSunny.17 mph17%29.67 "Hg10 mi
12:53 pm74 °FSunny.5 mph14%29.71 "Hg10 mi
11:53 am71 °FSunny.5 mph16%29.76 "Hg10 mi
10:53 am64 °FSunny.12 mph21%29.83 "Hg10 mi
9:53 am59 °FSunny.17 mph25%29.87 "Hg10 mi
8:53 am56 °FSunny.17 mph28%29.91 "Hg10 mi
7:53 am50 °FSunny.18 mph36%29.91 "Hg10 mi
6:53 am44 °FSunny.10 mph43%29.91 "Hg10 mi
5:53 am43 °FClear.13 mph47%29.91 "Hg10 mi
Weather by CustomWeather, © 2017

See weather overviewHow to use our weather pages